Manor / Austin Executive, TX

8:04 AM CST on December 06, 2019 (GMT -0600)
Manor / Austin Executive

Weather History for KEDC - October, 2019

Change the Weather History Date:

Saturday, October 12, 2019

  Actual Average (WUND) Record (WUND)
Temperature  
Mean Temperature 57 °F -  
Max Temperature 64 °F - - (-1)
Min Temperature 50 °F - - (-1)
Degree Days  
Heating Degree Days 8    
Growing Degree Days 7 (Base 50)    
Moisture  
Dew Point 34 °F    
Average Humidity 44    
Maximum Humidity 67    
Minimum Humidity 26    
Precipitation  
Precipitation 0.00 in - - ()
Sea Level Pressure  
Sea Level Pressure 30.20 in    
Wind  
Wind Speed 10 mph (NNE)    
Max Wind Speed 16 mph    
Max Gust Speed 23 mph    
Visibility 10 miles    
Events Rain    
Averages and records for this station are not official NWS values.
T = Trace of Precipitation, MM = Missing Value Source: NWS Daily Summary

Daily Weather History Graph

Daily Weather History Graph

Search for Another Location

Airport or City:

Astronomy

Oct. 12, 2019 Rise Set
Actual Time 7:30 AM CDT 7:02 PM CDT
Civil Twilight 7:06 AM CDT 7:26 PM CDT
Nautical Twilight 6:38 AM CDT 7:54 PM CDT
Astronomical Twilight 6:10 AM CDT 8:22 PM CDT
Moon 6:51 PM CDT (10/12) 6:19 AM CDT (10/12)
Length of Visible Light 12h 20m
Length of Day
11h 32m
Waxing Gibbous, 99% of the Moon is Illuminated
Oct 12
Waxing Gibbous
Oct 13
Full
Oct 21
Last Quarter
Oct 27
New
Nov 4
First Quarter

Hourly Weather History & Observations

Time (CDT) Temp. Dew Point Humidity Pressure Visibility Wind Dir Wind Speed Gust Speed Precip Events Conditions
12:15 AM 57.2 °F 37.4 °F 48% 30.26 in 10.0 mi NNE 10.4 mph - N/A   Overcast
12:35 AM 57.2 °F 35.6 °F 44% 30.27 in 10.0 mi North 11.5 mph - N/A   Overcast
12:55 AM 57.2 °F 35.6 °F 44% 30.27 in 10.0 mi NNE 12.7 mph - N/A   Overcast
1:15 AM 57.2 °F 35.6 °F 44% 30.26 in 10.0 mi NNE 12.7 mph 17.3 mph N/A   Overcast
1:35 AM 55.4 °F 35.6 °F 47% 30.27 in 10.0 mi NNE 10.4 mph - N/A   Overcast
1:55 AM 55.4 °F 35.6 °F 47% 30.27 in 10.0 mi NNE 11.5 mph - N/A   Overcast
2:15 AM 55.4 °F 35.6 °F 47% 30.27 in 10.0 mi NNE 11.5 mph - N/A   Overcast
2:35 AM 55.4 °F 35.6 °F 47% 30.28 in 10.0 mi NNE 11.5 mph 17.3 mph N/A   Overcast
2:55 AM 55.4 °F 35.6 °F 47% 30.27 in 10.0 mi NNE 12.7 mph - N/A   Overcast
3:15 AM 55.4 °F 33.8 °F 44% 30.27 in 10.0 mi NNE 15.0 mph 18.4 mph N/A   Overcast
3:35 AM 55.4 °F 32.0 °F 41% 30.26 in 10.0 mi NNE 15.0 mph 20.7 mph N/A   Overcast
3:55 AM 53.6 °F 32.0 °F 44% 30.26 in 10.0 mi NNE 11.5 mph 20.7 mph N/A   Overcast
4:15 AM 53.6 °F 33.8 °F 47% 30.26 in 10.0 mi NNE 12.7 mph - N/A   Overcast
4:35 AM 53.6 °F 33.8 °F 47% 30.26 in 10.0 mi NNE 12.7 mph - N/A   Overcast
4:55 AM 53.6 °F 33.8 °F 47% 30.25 in 10.0 mi NNE 12.7 mph 18.4 mph N/A   Overcast
5:15 AM 53.6 °F 33.8 °F 47% 30.25 in 10.0 mi NNE 11.5 mph - N/A   Overcast
5:35 AM 53.6 °F 32.0 °F 44% 30.26 in 10.0 mi NNE 15.0 mph 23.0 mph N/A   Overcast
5:55 AM 51.8 °F 30.2 °F 44% 30.26 in 10.0 mi NNE 16.1 mph 20.7 mph N/A   Overcast
6:15 AM 51.8 °F 32.0 °F 47% 30.26 in 10.0 mi NNE 13.8 mph 19.6 mph N/A   Overcast
6:35 AM 51.8 °F 32.0 °F 47% 30.27 in 10.0 mi North 9.2 mph - N/A   Overcast
6:55 AM 50.0 °F 32.0 °F 50% 30.27 in 10.0 mi North 12.7 mph - N/A   Overcast
7:15 AM 50.0 °F 30.2 °F 47% 30.28 in 10.0 mi North 11.5 mph - N/A   Overcast
7:35 AM 50.0 °F 32.0 °F 50% 30.28 in 10.0 mi North 12.7 mph - N/A   Overcast
7:55 AM 50.0 °F 32.0 °F 50% 30.28 in 10.0 mi North 12.7 mph - N/A   Overcast
8:15 AM 51.8 °F 28.4 °F 41% 30.28 in 10.0 mi NNE 11.5 mph 17.3 mph N/A   Overcast
8:35 AM 51.8 °F 28.4 °F 41% 30.28 in 10.0 mi NNE 12.7 mph - N/A   Overcast
8:55 AM 51.8 °F 28.4 °F 41% 30.28 in 10.0 mi NNE 12.7 mph - N/A   Overcast
9:15 AM 53.6 °F 28.4 °F 38% 30.29 in 10.0 mi North 8.1 mph - N/A   Overcast
9:35 AM 53.6 °F 28.4 °F 38% 30.29 in 10.0 mi NNE 10.4 mph - N/A   Overcast
9:55 AM 53.6 °F 28.4 °F 38% 30.29 in 10.0 mi North 9.2 mph - N/A   Overcast
10:15 AM 53.6 °F 30.2 °F 41% 30.29 in 10.0 mi North 10.4 mph - N/A   Mostly Cloudy
10:35 AM 55.4 °F 30.2 °F 38% 30.29 in 10.0 mi North 9.2 mph - N/A   Mostly Cloudy
10:55 AM 55.4 °F 30.2 °F 38% 30.29 in 10.0 mi NNE 9.2 mph - N/A   Overcast
11:15 AM 55.4 °F 32.0 °F 41% 30.28 in 10.0 mi NNE 8.1 mph - N/A   Overcast
11:35 AM 55.4 °F 32.0 °F 41% 30.27 in 10.0 mi NE 6.9 mph - N/A   Overcast
11:55 AM 55.4 °F 32.0 °F 41% 30.27 in 10.0 mi North 6.9 mph - N/A   Overcast
12:15 PM 57.2 °F 32.0 °F 38% 30.26 in 10.0 mi North 10.4 mph - N/A   Mostly Cloudy
12:35 PM 57.2 °F 32.0 °F 38% 30.25 in 10.0 mi North 10.4 mph - N/A   Mostly Cloudy
12:55 PM 55.4 °F 32.0 °F 41% 30.25 in 10.0 mi North 11.5 mph - N/A   Mostly Cloudy
1:15 PM 57.2 °F 32.0 °F 38% 30.23 in 10.0 mi NNE 10.4 mph - N/A   Mostly Cloudy
1:35 PM 57.2 °F 32.0 °F 38% 30.22 in 10.0 mi North 10.4 mph - N/A   Clear
1:55 PM 57.2 °F 35.6 °F 44% 30.21 in 9.0 mi North 9.2 mph - N/A Rain Light Rain
2:15 PM 57.2 °F 32.0 °F 38% 30.18 in 10.0 mi NNE 10.4 mph - N/A   Clear
2:35 PM 59.0 °F 30.2 °F 34% 30.17 in 10.0 mi NNE 9.2 mph - N/A   Clear
2:55 PM 62.6 °F 30.2 °F 30% 30.16 in 10.0 mi NNE 6.9 mph - N/A   Clear
3:15 PM 64.4 °F 28.4 °F 26% 30.14 in 10.0 mi NE 9.2 mph - N/A   Clear
3:35 PM 64.4 °F 30.2 °F 28% 30.12 in 10.0 mi ENE 10.4 mph - N/A   Clear
3:55 PM 64.4 °F 32.0 °F 30% 30.12 in 10.0 mi NE 6.9 mph - N/A   Partly Cloudy
4:15 PM 64.4 °F 32.0 °F 30% 30.13 in 10.0 mi NE 3.5 mph - N/A   Clear
4:35 PM 64.4 °F 32.0 °F 30% 30.11 in 10.0 mi NNE 3.5 mph - N/A   Partly Cloudy
4:55 PM 64.4 °F 32.0 °F 30% 30.11 in 10.0 mi Calm Calm - N/A   Partly Cloudy
5:15 PM 64.4 °F 33.8 °F 32% 30.11 in 10.0 mi Calm Calm - N/A   Partly Cloudy
5:35 PM 62.6 °F 37.4 °F 39% 30.10 in 10.0 mi SE 3.5 mph - N/A   Clear
5:55 PM 62.6 °F 37.4 °F 39% 30.09 in 10.0 mi SSE 4.6 mph - N/A   Clear
6:15 PM 62.6 °F 35.6 °F 37% 30.10 in 10.0 mi South 3.5 mph - N/A   Clear
6:35 PM 62.6 °F 35.6 °F 37% 30.09 in 10.0 mi Calm Calm - N/A   Clear
6:55 PM 60.8 °F 35.6 °F 39% 30.09 in 10.0 mi SE 5.8 mph - N/A   Clear
7:15 PM 59.0 °F 37.4 °F 45% 30.09 in 10.0 mi SE 6.9 mph - N/A   Clear
7:35 PM 59.0 °F 39.2 °F 48% 30.09 in 10.0 mi SSE 4.6 mph - N/A   Clear
7:55 PM 59.0 °F 39.2 °F 48% 30.09 in 10.0 mi Calm Calm - N/A   Scattered Clouds
8:15 PM 57.2 °F 39.2 °F 51% 30.09 in 9.0 mi Calm Calm - N/A   Mostly Cloudy
8:35 PM 57.2 °F 39.2 °F 51% 30.09 in 10.0 mi Calm Calm - N/A   Mostly Cloudy
8:55 PM 57.2 °F 39.2 °F 51% 30.08 in 10.0 mi Calm Calm - N/A   Partly Cloudy
9:15 PM 57.2 °F 44.6 °F 63% 30.08 in 10.0 mi Calm Calm - N/A   Clear
9:35 PM 57.2 °F 44.6 °F 63% 30.09 in 10.0 mi West 5.8 mph - N/A   Clear
9:55 PM 55.4 °F 41.0 °F 58% 30.09 in 10.0 mi West 3.5 mph - N/A   Partly Cloudy
10:15 PM 55.4 °F 42.8 °F 63% 30.09 in 10.0 mi Calm Calm - N/A   Partly Cloudy
10:35 PM 57.2 °F 42.8 °F 59% 30.10 in 10.0 mi West 4.6 mph - N/A   Partly Cloudy
10:55 PM 57.2 °F 42.8 °F 59% 30.10 in 10.0 mi Calm Calm - N/A   Scattered Clouds
11:15 PM 57.2 °F 42.8 °F 59% 30.09 in 10.0 mi Calm Calm - N/A   Mostly Cloudy
11:35 PM 57.2 °F 44.6 °F 63% 30.08 in 10.0 mi Calm Calm - N/A   Scattered Clouds
11:55 PM 57.2 °F 46.4 °F 67% 30.07 in 10.0 mi Calm Calm - N/A   Clear